This is the latest recevied weather packets stored in our database for station/object HUGOCO. If no packets are shown the sender has not sent any weather packets the latest 10 day(s).
| Time | Temp. | Humidity | Pressure | Rain* | Wind** | Luminosity | Snow |
|---|---|---|---|---|---|---|---|
| 1777642572 | 2.78° C | 87% | 1026.1 hPa | 0 mm | - | - | - |
| 1777642272 | 2.22° C | 87% | 1026.1 hPa | 0 mm | - | - | - |
| 1777641972 | 2.22° C | 87% | 1026.1 hPa | 0 mm | - | - | - |
| 1777641672 | 1.67° C | 86% | 1026.1 hPa | 0 mm | - | - | - |
| 1777641372 | 1.67° C | 86% | 1025.9 hPa | 0 mm | - | - | - |
| 1777641072 | 1.67° C | 86% | 1025.9 hPa | 0 mm | - | - | - |
| 1777640772 | 1.67° C | 85% | 1025.9 hPa | 0 mm | - | - | - |
| 1777640472 | 2.22° C | 83% | 1025.7 hPa | 0 mm | - | - | - |
| 1777640172 | 2.78° C | 83% | 1025.7 hPa | 0 mm | - | - | - |
| 1777639872 | 2.78° C | 83% | 1025.7 hPa | 0 mm | - | - | - |
| 1777639572 | 2.78° C | 84% | 1025.6 hPa | 0 mm | - | - | - |
| 1777639272 | 2.22° C | 84% | 1025.5 hPa | 0 mm | - | - | - |
| 1777638972 | 2.78° C | 83% | 1025.6 hPa | 0 mm | - | - | - |
| 1777638672 | 2.78° C | 83% | 1025.5 hPa | 0 mm | - | - | - |
| 1777638372 | 2.78° C | 84% | 1025.6 hPa | 0 mm | - | - | - |
| 1777638072 | 2.78° C | 85% | 1025.5 hPa | 0 mm | - | - | - |
| 1777637772 | 2.78° C | 86% | 1025.5 hPa | 0 mm | - | - | - |
| 1777637472 | 2.78° C | 87% | 1025.5 hPa | 0 mm | - | - | - |
| 1777637172 | 2.22° C | 87% | 1025.5 hPa | 0 mm | - | - | - |
| 1777636872 | 2.22° C | 86% | 1025.6 hPa | 0 mm | - | - | - |
| 1777636572 | 2.78° C | 86% | 1025.6 hPa | 0 mm | - | - | - |
| 1777636272 | 2.78° C | 86% | 1025.5 hPa | 0 mm | - | - | - |
| 1777635972 | 2.78° C | 87% | 1025.5 hPa | 0 mm | - | - | - |
| 1777635672 | 2.22° C | 82% | 1025.5 hPa | 0 mm | - | - | - |
| 1777635372 | 3.33° C | 86% | 1025.5 hPa | 0 mm | - | - | - |
* Rain latest hour (hover to see other rain measurements)
** Current wind speed in m/s (hover to see current wind gust speed)